STARLINK-1174, 45075

Orbit data source: Space-Track

STARLINK-1174, 45075 is a payload satellite owned by SpaceX/Seattle (US) in LEO that was launched on Wed, 29 Jan 2020 UTC via an FALCON 9 launch vehicle from the Air Force Eastern Test Range (AFETR). Payload-class satellites include a variety of spacecraft equipped with specific instruments for various scientific and technological missions. These include communications satellites like Starlink; space stations such as the ISS; scientific satellites like the Hubble; Earth observation satellites from companies like Planet Labs, Umbra, and HawkEye 360; GPS; miniature CubeSats for education and research; and military/defense satellites.

Not visible in the next 10 days
Identifier
45075, 2020-006AH
Orbit
LEO
Last TLE update
1 day ago
Origin
Manufacturer
SpaceX/Seattle
Mission
Partially operational Commercial Communications
Bus & Motor
STARLINK, Unknown motor
Mass
260 kg wet, ~248 kg dry
Launch date (UTC)
2020-01-29 (5 years ago)
Launch vehicle
FALCON 9
Launch site
Air Force Eastern Test Range (AFETR)
Object type
Payload
Rocket body
Debris
Shape & HBR
Box + 1 Pan, 8.86 m
Radar Cross Section
13.562 m², Large (>1 m²)

Expand to show TLE details & history

TLE from 1 day ago
0 STARLINK-1174
1 45075U 20006AH  25128.04426971  .00964136  58523-3  80291-3 0  9998
2 45075  53.0383 156.6479 0009371   5.0288 201.8782 16.13224754291607
Epoch: 2025-05-08T01:03Z
Definitive object data (Epoch: 2025-05-08T01:03:44.902Z)
Latitude
-21.36044°
Longitude
111.60584°
Altitude
249.774 km
Speed
7.754 km/s
True Right ascension
23h 34m 39s
True Declination
-21° 14' 06"
Sunlit
Object was in daylight at TLE epoch
Visualization TLE readout
Latitude
44.91497°
Longitude
-43.57006°
Altitude
232.417 km
Speed
7.775 km/s
Apparent Right ascension
07h 12m 00s
Apparent Declination
22° 35' 33"
Sunlit
Object is in full shadow
Visualization observer readout
Local Sidereal Time
14:19:21
Azimuth
297.817° NW
Elevation
2.373°
Doppler factor
1
Orbital elements
Apogee altitude
244.498 km
Perigee altitude
232.097 km
Semi-major axis
6,616.434 km
Eccentricity
0.0009371
Inclination
53.0383°
RAAN
156.6479°
Arg. of periapsis
5.0288°
True anomaly
201.83823°
Mean anomaly
201.8782°
Eccentric anomaly
201.85821°
Mean motion
4.0328 °/min
BSTAR
0.00080291
Orbital period
89.27 mins
Loading maneuver chart data...
Loading SW <> Apogee altitude chart data...
Loading historical data...
Loading historical data...
Loading historical data...
Loading historical data...
Loading historical data...
Loading historical data...
Loading historical data...

STARLINK-1174 Visibility forecast

Observer location: undefined°, undefined°

STARLINK-1174 is not visible in the next 10 days
Span
Click to sort rows by Start time (UTC) header in descending order
Start Az.
Max El. time (UTC)
Max El. Az.
Max El.
End time (UTC)
End Az.
|